Location: *
(40.4183°N, 3.7062°W)
Time: 11:27:51
(UTC+00:00)

Daily predictions for brighter satellites

Satellite Brightness Start Highest point End
(mag) Time Altitude Azimuth Time Altitude Azimuth Time Altitude Azimuth
USA 32 4.1 18:28:37 10° N 18:33:54 88° W 18:39:08 10° S
Meteor 1-21 4.3 18:29:20 10° N 18:34:59 90° WNW 18:40:40 10° S
Cosmos 2056 Rocket 4.2 18:30:26 10° SSE 18:35:17 35° E 18:40:09 10° NE
ISS -3.5 18:32:10 10° WSW 18:35:28 69° NW 18:38:47 10° NE
Cosmos 2237 Rocket 2.9 18:30:49 10° N 18:36:03 35° ENE 18:41:14 10° SE
CSL-04 Debris 4.2 18:31:26 10° SSE 18:36:48 73° ENE 18:42:12 10° N
Cosmos 1939 Rocket 3.7 18:34:15 10° SE 18:37:35 28° ENE 18:40:55 10° N
DELTA 2 R/B (1) 3.8 18:33:16 10° WSW 18:38:50 66° SSE 18:44:25 10° E
Cosmos 2333 Rocket 2.3 18:33:29 10° NNW 18:39:13 86° WSW 18:44:58 10° SSE
COSMOS 2455 4.2 18:36:39 10° NW 18:42:20 44° WSW 18:47:58 10° S
USA 116 3.4 18:40:05 10° NNE 18:43:46 88° W 18:47:02 10° SSW
Cosmos 1624 Rocket 4.3 18:41:24 10° S 18:46:18 44° ESE 18:51:13 10° NNE
Cosmos 1544 3.0 18:42:51 10° S 18:46:26 89° W 18:50:04 10° N
Cosmos 1980 4.1 18:41:07 10° NNW 18:46:33 45° ENE 18:51:56 10° SE
ATLAS 2AS CENTAUR R/B 3.0 18:41:58 10° NW 18:49:35 81° WSW 18:56:30 10° SSE
Okean 1 Rocket 3.0 18:47:03 10° S 18:51:22 85° E 18:55:46 10° N
Cosmos 1025 Rocket 3.7 18:49:37 10° NNW 18:53:49 57° W 18:58:01 10° S
Cosmos 2074 Rocket 4.4 18:47:47 10° NNW 18:53:59 71° W 19:00:09 10° S
Cosmos 2181 Rocket 4.4 18:58:59 10° SSE 19:04:43 40° E 19:10:34 10° NNE
Cosmos 2219 Rocket 3.0 18:59:51 10° NNW 19:05:17 53° WSW 19:10:42 10° S
Cosmos 1707 2.7 19:03:05 10° N 19:07:01 71° E 19:10:54 10° SSE
Lacrosse 5 3.3 19:03:48 10° SSE 19:07:09 18° ESE 19:08:27 16° E
SL-16 R/B 3.3 19:04:57 10° N 19:09:42 26° NE 19:12:43 17° E
Cosmos 2341 Rocket 4.1 19:03:48 10° N 19:09:53 53° E 19:15:56 10° SSE
NOSS 0 Rocket 4.0 19:07:43 10° NNW 19:13:57 82° WSW 19:20:10 10° SSE
Meteor 1-4 Rocket 2.8 19:12:30 10° N 19:15:52 42° ENE 19:18:16 17° SE
NOAA 11 4.2 19:10:58 10° SSE 19:16:27 84° ENE 19:21:58 10° NNW
Cosmos 1371 Rocket 4.2 19:13:25 10° SSW 19:18:44 79° WNW 19:24:07 10° NNE
YAOGAN 1 4.1 19:15:18 10° SSW 19:19:20 39° W 19:23:25 10° NNW
Cosmos 2082 3.9 19:16:14 10° S 19:21:43 49° ESE 19:27:13 10° NE
Cosmos 2218 Rocket 4.5 19:15:54 10° N 19:21:50 40° ENE 19:26:58 13° SE
BREEZE-M DEB (TANK) 4.4 19:20:33 10° W 19:22:03 16° SW 19:23:54 10° S
SPOT 3 Rocket 4.2 19:19:19 18° ESE 19:22:30 35° ENE 19:27:09 10° N
ARGOS 4.2 19:20:36 20° E 19:22:45 26° ENE 19:27:09 10° N
Cosmos 2154 Rocket 4.3 19:17:24 10° NNW 19:23:34 71° W 19:29:44 10° S
FREGAT/IRIS 2.6 19:23:41 35° ESE 19:24:25 46° ENE 19:27:09 10° N
GP-B 4.1 19:21:16 10° N 19:25:35 51° W 19:29:52 10° SSW
Resurs 01 Rocket 3.5 19:26:29 14° NE 19:26:29 14° NE 19:28:20 10° NNE
RESURS DK-1 4.4 19:24:15 10° NNE 19:26:19 13° NE 19:26:21 13° NE
SL-8 Rocket 4.1 19:21:13 10° N 19:27:14 51° ENE 19:33:11 10° SSE
Cosmos 1892 Rocket 3.5 19:23:21 10° N 19:27:45 63° E 19:32:06 10° SSE
IRS-1A Rocket 4.2 19:22:14 10° SSE 19:27:56 88° ENE 19:33:35 10° NNW
Cosmos 1452 Rocket 3.9 19:24:32 10° SSE 19:29:20 37° ESE 19:34:09 10° NE
COSMOS 2428 4.5 19:24:49 10° NW 19:29:47 32° WSW 19:34:45 10° SSW
Meteor 2-5 Rocket 4.0 19:24:16 10° N 19:29:57 48° ENE 19:34:39 15° SSE
CZ-2C R/B 4.4 19:30:52 20° ENE 19:31:38 21° ENE 19:35:40 10° NNE
Cosmos 1023 Rocket 4.4 19:26:36 10° NNW 19:31:43 67° ENE 19:35:35 17° SSE
Cosmos 676 Rocket 4.1 19:26:50 10° N 19:31:58 53° ENE 19:35:02 23° SE
SL-4 R/B 3.8 19:30:44 10° S 19:31:43 14° SSE 19:31:43 14° SSE
Cosmos 2227 Rocket 2.3 19:29:54 10° SSW 19:35:33 81° WNW 19:41:16 10° NNE
CZ-2D R/B 4.4 19:32:10 10° S 19:35:47 43° W 19:39:26 10° NNW
CZ-2C R/B 3.5 19:36:19 10° NNE 19:40:46 72° ESE 19:45:10 10° S
SJ-6B 3.0 19:41:09 37° SE 19:42:22 52° ENE 19:46:20 10° N
SJ-11-01 4.2 19:39:06 17° SSE 19:42:48 71° ENE 19:47:33 10° N
Cosmos 1766 3.3 19:42:44 24° SSE 19:44:52 55° E 19:48:43 10° NNE
Cosmos 2297 Rocket 2.7 19:40:00 10° SW 19:45:35 63° WNW 19:51:13 10° NNE
Cosmos 614 Rocket 4.4 19:42:17 10° NNW 19:47:25 61° WSW 19:52:29 10° S
Cosmos 1190 Rocket 4.3 19:42:27 10° NNW 19:47:42 66° WSW 19:52:52 10° S
H-2A R/B 2.2 19:49:53 39° ESE 19:51:06 47° ENE 19:55:56 10° N
ADEOS Rocket 3.6 19:45:01 10° NNE 19:52:27 55° E 20:00:01 10° S
Okean 1-7 Rocket 4.0 19:49:34 10° NNW 19:53:59 63° W 19:58:26 10° S
Cosmos 405 Rocket 4.1 19:54:05 10° SW 19:57:31 37° WNW 20:01:01 10° N
SL-08 RB Rocket 4.5 19:58:55 36° ENE 19:58:55 36° ENE 20:02:43 10° N
Ariane Rocket 4.3 19:54:27 10° SSW 19:59:09 38° W 20:03:54 10° NNW
PSLV R/B 4.4 19:57:08 10° W 19:58:50 34° WNW 19:58:50 34° WNW
Cosmos 1544 Rocket 3.7 19:58:17 10° SSW 20:02:44 76° W 20:07:13 10° N
Cosmos 1455 Rocket 3.6 19:58:22 10° SSW 20:02:45 60° W 20:07:10 10° N
USA 186 2.3 20:04:57 59° SW 20:05:13 61° W 20:08:36 10° NNW
Lacrosse 5 rocket 3.4 20:02:19 10° W 20:05:14 22° NNW 20:08:06 11° NNE
Cosmos 1674 2.9 20:03:02 10° N 20:06:06 58° N 20:06:06 58° N
BREEZE M DEB (TANK) 4.0 20:10:01 10° NW 20:12:28 24° NNE 20:12:29 24° NNE
ISS -1.3 20:10:26 10° WNW 20:12:42 17° NNW 20:13:26 16° N
Cosmos 1437 Rocket 3.0 20:11:41 10° NNW 20:15:10 65° WNW 20:15:10 65° WNW
ATLAS CENTAUR R/B 3.8 20:11:07 10° SSW 20:11:59 15° S 20:11:59 15° S
ERBS 3.7 20:13:56 10° NW 20:16:07 37° NW 20:16:07 37° NW
Cosmos 1420 Rocket 4.4 20:13:42 10° SSW 20:18:56 62° WNW 20:24:14 10° NNE
Cosmos 2237 Rocket 3.7 20:14:58 10° NW 20:20:00 33° WSW 20:25:01 10° SSW
Cosmos 1626 Rocket 3.9 20:20:39 10° N 20:24:09 58° N 20:24:09 58° N
DELTA 2 R/B (1) 3.4 20:19:36 10° W 20:25:14 83° S 20:25:36 77° SE
Meteor 1-24 Rocket 4.0 20:28:38 10° NNW 20:34:29 69° W 20:36:36 41° SSW
Cosmos 1741 Rocket 4.2 20:31:59 10° NNW 20:36:35 63° NNE 20:36:35 63° NNE
GEOS 3 Rocket 4.2 20:47:01 49° SW 20:47:10 49° WSW 20:52:08 10° NW
Lacrosse 5 2.9 20:44:30 10° SW 20:47:46 40° WSW 20:47:46 40° WSW
SL-16 R/B 2.9 20:48:36 10° NW 20:54:00 47° WSW 20:54:38 45° SW
Nadezhda 3 Rocket 4.0 20:55:43 71° N 20:55:43 71° N 21:01:14 10° N
Resurs 01 Rocket 3.4 21:04:04 29° NW 21:04:04 29° NW 21:06:23 10° NNW
ARGOS 4.2 21:02:07 38° WSW 21:02:46 40° W 21:07:50 10° NNW
CZ-2C R/B 4.0 21:11:56 47° WNW 21:11:56 47° WNW 21:16:26 10° NNW
Cosmos 1821 Rocket 4.4 21:06:08 10° N 21:10:57 57° NNW 21:10:57 57° NNW
H-2A R/B 4.2 21:30:31 19° W 21:30:47 19° W 21:34:18 10° NW
CZ-4C R/B 4.4 21:37:38 10° NNW 21:42:04 23° NNE 21:42:04 23° NNE
